Regional Weather Roundup
Issued by NWS

Home | Current Version | Previous Version | Graphics & Text | Print | Product List | Glossary On
Versions: 1 2 3 4 5 6 7 8 9 10 11 12 13 14 15 16 17 18 19 20 21 22 23 24 25 26 27 28 29 30 31 32 33 34 35 36 37 38 39 40 41 42 43 44 45 46 47 48 49 50
000
ASUS44 KMEG 241210
RWRTN
TENNESSEE HOURLY STATE WEATHER ROUNDUP
NATIONAL WEATHER SERVICE MEMPHIS TN
700 AM CDT THU APR 24 2014

TNZ002-004-019-021-049-052-054-088>092-241300-
WEST TENNESSEE

CITY           SKY/WX    TMP DP  RH WIND       PRES   REMARKS
MEMPHIS INTL   MOCLDY    58  38  47 SE7       29.92R
NWS MEMPHIS      N/A     49 N/A N/A MISG        N/A
JACKSON        CLEAR     46  37  71 CALM      29.95R
DYERSBURG      CLEAR     52  34  50 E6        29.94S
UNION CITY     CLEAR     45  39  81 CALM      29.93S
PARIS          MOCLDY    48  34  58 SE8       29.96R
LEXINGTON      CLEAR     39  37  93 CALM      29.95R
SILERTON         N/A     49  38  65 E1          N/A
SAVANNAH       CLEAR     39  39 100 CALM      29.96R
$$

TNZ008-025-027-028-033-062-065-066-241300-
NORTH MIDDLE TENNESSEE

CITY           SKY/WX    TMP DP  RH WIND       PRES   REMARKS
NASHVILLE      PTSUNNY   45  40  82 CALM      29.99R
DICKSON        PTCLDY    45  36  70 CALM      29.97R
PORTLAND       PTSUNNY   46  36  66 SE3       29.97S
CLARKSVILLE    PTSUNNY   45  37  73 CALM      29.97R
SMYRNA         MOSUNNY   42  40  93 CALM      30.00S
MURFREESBORO   MOSUNNY   44  39  82 CALM      29.98F
COOKEVILLE     SUNNY     39  37  93 CALM      30.00R
GALLATIN       MOSUNNY   43  39  85 CALM      29.99S
CROSSVILLE     SUNNY     49  35  58 E3        30.04R
$$

TNZ061-075-076-078-094-096-097-241300-
SOUTH MIDDLE TENNESSEE

CITY           SKY/WX    TMP DP  RH WIND       PRES   REMARKS
LEWISBURG      MOSUNNY   39  36  89 CALM      29.98R
FAYETTEVILLE   SUNNY     45  36  70 SE3       29.99R
TULLAHOMA      SUNNY     43  37  81 CALM      29.99S
WINCHESTER     SUNNY     52  36  54 SE7       30.00R
MCMINNVILLE    SUNNY     45  39  81 CALM      29.99F
COLUMBIA       SUNNY     43  43 100 CALM      29.97R
SHELBYVILLE    MOSUNNY   41  39  93 CALM      29.99S
$$

TNZ017-018-042-046-047-241300-
NORTHEAST TENNESSEE

CITY           SKY/WX    TMP DP  RH WIND       PRES   REMARKS
TRI CITIES     MOSUNNY   42  32  67 CALM      30.07R
ELIZABETHTON   SUNNY     43  30  61 CALM      30.06R
$$

TNZ012-013-036-069-073-074-241300-
CENTRAL EAST TENNESSEE

CITY           SKY/WX    TMP DP  RH WIND       PRES   REMARKS
KNOXVILLE      MOSUNNY   48  36  63 NE3       30.05R
OAK RIDGE      SUNNY     46  38  73 E3        30.06R
$$

TNZ083-085-099-241300-
SOUTHEAST TENNESSEE

CITY           SKY/WX    TMP DP  RH WIND       PRES   REMARKS
CHATTANOOGA    MOSUNNY   47  41  80 CALM      30.05R
$$

SKY/WX REPORTED AS FAIR MEANS FEW OR NO CLOUDS BELOW
12 THOUSAND FEET.




USA.gov is the U.S. government's official web portal to all federal, state and local government web resources and services.